Location: Zagreb
(45.8000°N, 16.0000°E)
Time: 00:31:06
(UTC+02:00)

Vanguard 2 - Visible Passes

Search period start: 28 May 2022 00:00
Search period end: 07 June 2022 00:00
Orbit: 552 x 2935 km, 32.9° (Epoch: 27 May)

Date Brightness Start Highest point End Pass type
(mag) Time Alt. Az. Time Alt. Az. Time Alt. Az.
29 May 10.8 03:36:18 10° SSE 03:40:15 13° SE 03:44:49 10° ESE visible
30 May 10.6 03:50:50 10° S 03:56:41 17° SE 04:04:09 10° E visible
31 May 10.4 04:06:25 10° S 04:13:13 22° SE 04:22:28 10° E visible
01 Jun 10.3 04:22:30 10° SSW 04:29:51 27° SSE 04:40:22 10° E visible
03 Jun 10.2 02:52:23 10° SSE 02:56:03 14° SE 03:00:44 10° ESE visible
04 Jun 10.0 03:08:35 13° S 03:12:36 19° SE 03:19:14 10° ESE visible
05 Jun 9.8 03:24:47 14° S 03:29:16 23° SSE 03:37:09 10° ESE visible
06 Jun 9.7 03:40:58 14° SSW 03:46:01 28° SSE 03:54:47 10° ESE visible
